Regional Weather Roundup
Issued by NWS State College, PA

Home | Current Version | Previous Version | Text Only | Print | Product List | Glossary On
Versions: 1 2 3 4 5 6 7 8 9 10 11 12 13 14 15 16 17 18 19 20 21 22 23 24 25 26 27 28 29 30 31 32 33 34 35 36 37 38 39 40 41 42 43 44 45 46 47 48 49 50
000
ASUS41 KCTP 301203
RWRCTP

REGIONAL WEATHER ROUNDUP
NATIONAL WEATHER SERVICE STATE COLLEGE PA
800 AM EDT SUN AUG 30 2015

Note: "fair" indicates few or no clouds below 12,000 feet with no
significant weather and/or obstructions to visibility.

* = STATION THAT DOES NOT REPORT PRECIPITATION /E.G. RAIN...SNOW...ETC/
    THUNDER OR FOG.

PAZ002>004-007>009-013>016-020>023-029>032-301300-
WESTERN PENNSYLVANIA

CITY           SKY/WX    TMP DP  RH WIND       PRES   REMARKS
ERIE           CLOUDY    68  64  87 S7        30.09S
MEADVILLE      CLOUDY    66  65  96 CALM      30.12F FOG
FRANKLIN*      CLOUDY    64  63  94 S5        30.16S
NEW CASTLE     LGT RAIN  67  67 100 CALM      30.14R FOG
BEAVER COUNTY  NOT AVBL
BUTLER*        CLOUDY    66  64  94 CALM      30.14F
PITTSBURGH INT CLOUDY    67  65  93 E3        30.13S
PITTSBURGH     CLOUDY    66  61  84 S5        30.14R HAZE
INDIANA*       CLOUDY    66  63  88 CALM      30.19S
LATROBE        PTSUNNY   66  66 100 SE3       30.16S
WASHINGTON CO* PTSUNNY   64  64 100 SW3       30.15S
$$

PAZ004>006-010>012-017>019-024>028-033>037-041-042-045-046-049>053-301300-
CENTRAL PENNSYLVANIA

CITY           SKY/WX    TMP DP  RH WIND       PRES   REMARKS
BRADFORD       CLOUDY    63  61  93 SW3       30.16R FOG
DUBOIS         LGT RAIN  65  62  90 CALM      30.16R FOG
CLEARFIELD     PTSUNNY   61  59  93 CALM      30.16R
JOHNSTOWN      PTSUNNY   65  58  78 W8        30.20R
ALTOONA        SUNNY     64  59  83 CALM      30.16R HAZE
STATE COLLEGE  MOSUNNY   61  59  94 CALM      30.14R
WILLIAMSPORT   PTSUNNY   63  60  90 CALM      30.11S FOG
SELINSGROVE    MOSUNNY   62  60  93 CALM      30.13R FOG
FT INDIANTOWN  SUNNY     64  64  99 CALM      30.12R
CAPITAL CITY   SUNNY     69  65  86 CALM      30.12R
HARRISBURG     MOSUNNY   70  65  84 CALM      30.11R
YORK           SUNNY     66  64  93 CALM      30.13R FOG
$$

PAZ038>040-043-044-047-048-054-055-060>062-067>071-301300-
EASTERN PENNSYLVANIA

CITY           SKY/WX    TMP DP  RH WIND       PRES   REMARKS
SCRANTON       CLOUDY    65  60  84 E3        30.12R
MOUNT POCONO   MOSUNNY   65  62  90 NW5       30.16R FOG
ALLENTOWN      SUNNY     65  62  90 CALM      30.12R FOG
QUAKERTOWN*    SUNNY     64  63  94 CALM      30.13S
READING        SUNNY     69  64  84 CALM      30.11R
LANCASTER      SUNNY     66  63  90 CALM      30.12S FOG
COATESVILLE    SUNNY     66  66 100 CALM      30.14R
POTTSTOWN      SUNNY     67  65  93 S3        30.14R
BLUE BELL      SUNNY     70  64  83 CALM      30.12S
DOYLESTOWN     SUNNY     67  64  90 S3        30.12R
WILLOW GROVE   NOT AVBL
NORTH PHILA    SUNNY     73  62  68 CALM      30.14R
PHILADELPHIA   MOSUNNY   73  64  73 SW7       30.13R
$$



USA.gov is the U.S. government's official web portal to all federal, state and local government web resources and services.